TimeEST,TemperatureF,Dew PointF,Humidity,Sea Level PressureIn,VisibilityMPH,Wind Direction,Wind SpeedMPH,Gust SpeedMPH,PrecipitationIn,Events,Conditions,WindDirDegrees,DateUTC
12:53 AM,12.0,-4.0,49,30.10,10.0,NW,18.4,24.2,N/A,,Clear,310,2013-01-24 05:53:00
1:53 AM,12.0,-0.9,56,30.11,10.0,WNW,12.7,23.0,N/A,,Partly Cloudy,290,2013-01-24 06:53:00
2:53 AM,12.0,-0.9,56,30.09,10.0,WNW,13.8,19.6,N/A,,Scattered Clouds,300,2013-01-24 07:53:00
3:53 AM,10.9,-2.0,56,30.08,10.0,NW,18.4,-,N/A,,Clear,310,2013-01-24 08:53:00
4:53 AM,10.0,-2.9,56,30.08,10.0,NW,18.4,26.5,N/A,,Clear,320,2013-01-24 09:53:00
5:53 AM,10.0,-6.0,48,30.09,10.0,NW,17.3,25.3,N/A,,Clear,320,2013-01-24 10:53:00
6:53 AM,10.0,-5.1,51,30.09,10.0,NW,16.1,25.3,N/A,,Clear,320,2013-01-24 11:53:00
7:53 AM,10.9,-2.9,54,30.10,10.0,NW,16.1,21.9,N/A,,Clear,310,2013-01-24 12:53:00
8:53 AM,12.0,-2.0,53,30.09,10.0,NNW,16.1,23.0,N/A,,Clear,330,2013-01-24 13:53:00
9:53 AM,12.0,-2.0,53,30.08,10.0,NW,18.4,-,N/A,,Clear,320,2013-01-24 14:53:00
10:53 AM,12.9,1.9,62,30.06,10.0,NNW,19.6,26.5,N/A,,Clear,330,2013-01-24 15:53:00
11:53 AM,16.0,1.9,54,30.04,10.0,NNW,18.4,26.5,N/A,,Clear,340,2013-01-24 16:53:00
12:53 PM,19.0,1.0,46,30.02,10.0,NNW,21.9,31.1,N/A,,Clear,340,2013-01-24 17:53:00
1:53 PM,19.0,-0.9,42,30.03,10.0,NW,21.9,29.9,N/A,,Clear,310,2013-01-24 18:53:00
2:53 PM,19.0,-2.0,40,30.05,10.0,NW,26.5,34.5,N/A,,Clear,320,2013-01-24 19:53:00
3:53 PM,19.0,-2.9,38,30.06,10.0,WNW,21.9,29.9,N/A,,Clear,300,2013-01-24 20:53:00
4:53 PM,19.0,-2.9,38,30.08,10.0,NW,18.4,32.2,N/A,,Clear,310,2013-01-24 21:53:00
5:53 PM,19.0,-2.9,38,30.11,10.0,WNW,20.7,28.8,N/A,,Clear,300,2013-01-24 22:53:00
6:53 PM,19.0,-0.9,42,30.12,10.0,WNW,17.3,31.1,N/A,,Clear,300,2013-01-24 23:53:00
7:53 PM,19.0,-0.9,42,30.13,10.0,West,18.4,35.7,N/A,,Clear,280,2013-01-25 00:53:00
8:53 PM,18.0,-0.9,44,30.14,10.0,WNW,21.9,32.2,N/A,,Clear,290,2013-01-25 01:53:00
9:53 PM,18.0,-2.9,40,30.17,10.0,NW,19.6,35.7,N/A,,Clear,310,2013-01-25 02:53:00
10:53 PM,16.0,-2.9,43,30.18,10.0,WNW,23.0,34.5,N/A,,Clear,300,2013-01-25 03:53:00
11:53 PM,16.0,-2.0,45,30.19,10.0,WNW,23.0,36.8,N/A,,Clear,290,2013-01-25 04:53:00